Location: Asar Burnu
(36.5203°N, 30.5523°E)
Time: 18:53:11
(UTC+00:00)

USA 215 - Pass Details

Date: 04 August 2024
Orbit: 1099 x 1108 km, 123.0° (Epoch: 16 September)

Event Time Altitude Azimuth Distance (km) Brightness Sun altitude
Exits shadow 21:28:33 60° 7° (N) 1,251 3.6 -35.9°
Drops below altitude 10° 21:34:13 10° 322° (NW) 2,962 6.1 -36.1°
Sets 21:36:43 0° 319° (NW) 3,923 6.9 -36.2°
